[[[{"header":{"parameterUnit":"kt","parameterCategory":2,"dx":1,"dy":1,"la1":30.253999710083008,"la2":30.299108505249023,"lo1":-89.0895004272461,"lo2":-89.04439544677734,"nx":28,"ny":28,"refTime":"2022-09-24T21:00:00:Z","depth":0,"parameterNumber":1,"parameterNumberName":"U-component_of_WINDS"},"data":[-5.368,-5.3747,-5.3715,-5.3777,-5.376,-5.3797,-5.38,-5.3802,-5.3795,-5.3837,-5.3856,-5.3833,-5.3816,-5.3832,-5.3851,-5.3841,-5.3851,-5.3896,-5.3876,-5.3701,-5.3675,-5.365,-5.3631,-5.3899,-5.3899,-5.4061,-5.4063,-5.4064,-5.3551,-5.3534,-5.3558,-5.356,-5.358,-5.3518,-5.3515,-5.3536,-5.3572,-5.3566,-5.3583,-5.3618,-5.3642,-5.3609,-5.3628,-5.3659,-5.3631,-5.3666,-5.3663,-5.3661,-5.3473,-5.3454,-5.3688,-5.3688,-5.3688,-5.3688,-5.3688,-5.3688,-5.3308,-5.3349,-5.3332,-5.3358,-5.3351,-5.3353,-5.3388,-5.3358,-5.3382,-5.3397,-5.3356,-5.3397,-5.3386,-5.3394,-5.339,-5.3421,-5.3377,-5.3407,-5.3414,-5.3422,-5.3435,-5.3203,-5.3423,-5.3423,-5.3422,-5.3421,-5.3421,0,-5.312,-5.3091,-5.3112,-5.3124,-5.3142,-5.3149,-5.315,-5.3171,-5.3101,-5.3125,-5.3156,-5.3169,-5.3195,-5.3222,-5.3233,-5.3223,-5.3162,-5.3153,-5.3173,-5.3193,-5.3208,-5.32,-5.2893,-5.3147,-5.3145,-5.3143,-5.3142,-5.3141,-5.2872,-5.2925,-5.2893,-5.2912,-5.2905,-5.2938,-5.2951,-5.2885,-5.2902,-5.2896,-5.2937,-5.2962,-5.2979,-5.3036,-5.3003,-5.3024,-5.2994,-5.3094,-5.2997,-5.3013,-5.2995,-5.2992,-5.2997,-5.3115,-5.3118,-5.3121,-5.3123,0,-5.2735,-5.2684,-5.2756,-5.272,-5.2712,-5.2772,-5.2741,-5.2781,-5.2748,-5.2798,-5.2806,-5.2756,-5.2789,-5.2738,-5.2767,-5.274,-5.2837,-5.2809,-5.284,-5.2831,-5.2915,-5.2908,-5.3197,-5.3231,-5.2954,-5.2957,-5.2959,0,-5.2503,-5.2576,-5.2496,-5.2541,-5.2619,-5.255,-5.263,-5.2609,-5.2598,-5.2637,-5.2559,-5.2598,-5.2528,-5.256,-5.252,-5.2591,-5.2596,-5.258,-5.2568,-5.2587,-5.2589,-5.2596,-5.2583,-5.2542,-5.254,-5.2539,-5.2538,0,-5.2294,-5.2337,-5.2409,-5.2411,-5.2381,-5.2417,-5.2406,-5.2393,-5.2408,-5.2418,-5.2427,-5.2446,-5.2456,-5.2472,-5.2421,-5.2357,-5.2506,-5.2408,-5.2489,-5.2491,-5.2526,-5.2524,-5.2792,-5.2536,-5.2536,-5.2535,-5.2535,0,-5.21,-5.211,-5.2224,-5.2195,-5.221,-5.2259,-5.227,-5.23,-5.2293,-5.227,-5.2278,-5.2221,-5.2279,-5.2184,-5.2263,-5.2194,-5.2209,-5.2198,-5.2203,-5.2205,-5.2101,-5.2259,-5.252,-5.2545,-5.2207,-5.2204,-5.2202,0,-5.1873,-5.1974,-5.1916,-5.2026,-5.2065,-5.1973,-5.2026,-5.2021,-5.1995,-5.2025,-5.1997,-5.2033,-5.1952,-5.1957,-5.2002,-5.1975,-5.2065,-5.1961,-5.2007,-5.201,-5.2011,-5.225,-5.2301,-5.2468,-5.2166,-5.217,-5.2173,0,-5.1692,-5.1654,-5.1678,-5.1676,-5.1659,-5.1693,-5.1754,-5.1774,-5.1797,-5.1801,-5.1851,-5.1901,-5.1841,-5.185,-5.1806,-5.1856,-5.2002,-5.1786,-5.1785,-5.1826,-5.2144,-5.2192,-5.2221,-5.1961,-5.1965,-5.1969,-5.2144,0,-5.1408,-5.1453,-5.1515,-5.1517,-5.1534,-5.1601,-5.1546,-5.1572,-5.1526,-5.1497,-5.157,-5.1555,-5.1578,-5.1597,-5.1554,-5.1685,-5.1655,-5.1592,-5.1497,-5.1655,-5.1711,-5.1734,-5.1417,-5.1414,-5.1411,-5.1409,0,0,-5.1205,-5.1267,-5.1202,-5.1258,-5.1269,-5.1173,-5.1249,-5.1249,-5.1252,-5.1262,-5.1208,-5.1277,-5.1269,-5.1363,-5.1408,-5.1418,-5.1436,-5.1384,-5.158,-5.16,-5.1617,-5.1679,-5.1704,-5.1405,-5.1404,-5.1403,-5.1402,0,-5.1089,-5.108,-5.1155,-5.1151,-5.1143,-5.1109,-5.1127,-5.1103,-5.1089,-5.116,-5.1081,-5.1119,-5.1177,-5.1177,-5.1185,-5.137,-5.131,-5.1382,-5.1499,-5.1556,-5.1579,-5.1599,-5.1664,-5.1688,-5.1395,-5.1396,-5.1396,0,-5.0901,-5.0882,-5.0912,-5.0933,-5.0927,-5.0972,-5.0857,-5.091,-5.0942,-5.0837,-5.0909,-5.0894,-5.0891,-5.0988,-5.1029,-5.0982,-5.1198,-5.1121,-5.1136,-5.114,-5.1193,-5.122,-5.1245,-5.0922,-5.0921,-5.0919,0,0,-5.0809,-5.085,-5.081,-5.0904,-5.0906,-5.0856,-5.0875,-5.0831,-5.0828,-5.0828,-5.0808,-5.0809,-5.0841,-5.0865,-5.0893,-5.1008,-5.1002,-5.1065,-5.1087,-5.1105,-5.1119,-5.1177,-5.1205,-5.0914,-5.0914,-5.0914,0,0,-5.0766,-5.0722,-5.0676,-5.0778,-5.0777,-5.0746,-5.0805,-5.0749,-5.0768,-5.0755,-5.0685,-5.0683,-5.0772,-5.0762,-5.0695,-5.0859,-5.0766,-5.078,-5.0863,-5.089,-5.0912,-5.0913,-5.0577,0,0,0,0,0,-5.062,-5.0727,-5.0686,-5.0694,-5.0721,-5.0768,-5.0771,-5.0715,-5.065,-5.0698,-5.0672,-5.0605,-5.0711,-5.065,-5.0661,-5.0736,-5.0844,-5.0856,-5.0868,-5.1001,-5.103,-5.1055,0,0,0,0,0,0,-5.0623,-5.0634,-5.0682,-5.0656,-5.0662,-5.0764,-5.064,-5.0628,-5.0643,-5.0629,-5.0613,-5.0605,-5.0559,-5.0641,-5.0651,-5.0724,-5.0574,-5.0849,-5.0859,-5.0869,-5.1011,-5.1035,-5.1055,0,0,0,0,0,-5.0625,-5.0633,-5.0691,-5.0654,-5.0659,-5.061,-5.0636,-5.0624,-5.0635,-5.0595,-5.0585,-5.0592,-5.0563,-5.0568,-5.0647,-5.0721,-5.0566,-5.057,-5.0856,-5.0864,-5.0871,-5.1022,0,0,0,0,0,0,-5.0626,-5.0624,-5.0691,-5.069,-5.0609,-5.0603,-5.06,-5.0622,-5.0599,-5.0591,-5.057,-5.056,-5.0567,-5.057,-5.0574,-5.0723,-5.056,-5.0564,-5.0566,-5.0862,-5.0869,-5.0874,0,0,0,0,0,0,-5.0619,-5.0624,-5.069,-5.0637,-5.0629,-5.0597,-5.0594,-5.0654,-5.06,-5.0575,-5.0566,-5.0566,-5.0561,-5.0572,-5.0575,-5.067,-5.0555,-5.0559,-5.0562,-5.0563,-5.0867,-5.0872,0,0,0,0,0,0,-5.062,-5.0625,-5.0636,-5.0631,-5.0624,-5.0613,-5.0648,-5.068,-5.0553,-5.0578,-5.054,-5.0534,-5.0565,-5.0566,-5.0576,-5.067,-5.067,-5.0555,-5.0558,-5.056,-5.0561,0,0,0,0,0,0,0,-5.0621,-5.0604,-5.0694,-5.0626,-5.062,-5.0684,-5.0684,-5.0684,-5.0552,-5.0547,-5.0542,-5.0537,-5.0532,-5.0536,-5.0541,-5.067,0,0,-5.0555,-5.0557,0,0,0,0,0,0,0,0,-5.06,-5.0603,-5.0694,-5.0694,-5.0694,-5.0684,-5.0684,-5.0684,-5.0551,-5.0547,-5.0543,-5.0539,-5.0533,-5.0537,-5.054,0,0,0,0,0,0,0,0,0,0,0,0,0,0,0,-5.0694,-5.0694,0,-5.0684,-5.0684,-5.0684,-5.055,-5.0547,-5.0544,-5.054,-5.0534,-5.0537,-5.054,0,0,0,0,0,0,0,0,0,0,0,0,0,0,0,0,0,0,0,0,0,0,0,0,0,0,0,0,0,0,0,0,0,0,0,0,0,0,0,0,0,0,0,0,0,0,0,0,0,0,0,0,0,0,0,0,0,0,0,0,0,0,0,0,0,0,0,0,0]}],[{"header":{"parameterUnit":"kt","parameterCategory":2,"dx":1,"dy":1,"la1":30.253999710083008,"la2":30.299108505249023,"lo1":-89.0895004272461,"lo2":-89.04439544677734,"nx":28,"ny":28,"refTime":"2022-09-24T21:00:00:Z","depth":0,"parameterNumber":2,"parameterNumberName":"V-component_of_WINDS"},"data":[-9.8723,-9.8797,-9.8783,-9.886,-9.8861,-9.8911,-9.8924,-9.8939,-9.8948,-9.9005,-9.9035,-9.9027,-9.9029,-9.906,-9.9091,-9.9086,-9.91,-9.9137,-9.9125,-9.8975,-9.8953,-9.8933,-9.8914,-9.914,-9.9141,-9.9282,-9.9284,-9.9285,-9.8615,-9.8617,-9.8654,-9.868,-9.8711,-9.8668,-9.8684,-9.8713,-9.8758,-9.8769,-9.8798,-9.8846,-9.8882,-9.8871,-9.8902,-9.8935,-9.8915,-9.8945,-9.8941,-9.8942,-9.8782,-9.8762,-9.896,-9.896,-9.896,-9.896,-9.896,-9.896,-9.8414,-9.8459,-9.8467,-9.8507,-9.8516,-9.8533,-9.8573,-9.8563,-9.8597,-9.863,-9.8605,-9.8655,-9.8662,-9.8692,-9.8698,-9.8736,-9.8701,-9.8728,-9.8734,-9.8741,-9.8752,-9.8549,-9.8741,-9.874,-9.874,-9.8739,-9.8739,0,-9.8263,-9.8248,-9.8282,-9.8313,-9.8341,-9.8362,-9.8379,-9.8403,-9.8365,-9.8396,-9.8438,-9.8459,-9.8502,-9.8539,-9.8565,-9.8565,-9.8521,-9.8515,-9.8533,-9.8546,-9.8554,-9.855,-9.8289,-9.8509,-9.8507,-9.8506,-9.8504,-9.8504,-9.8059,-9.8113,-9.8113,-9.8139,-9.8145,-9.8187,-9.8209,-9.8171,-9.8196,-9.821,-9.8251,-9.8288,-9.8316,-9.8385,-9.837,-9.8401,-9.838,-9.8466,-9.8384,-9.8394,-9.838,-9.8378,-9.8382,-9.8482,-9.8485,-9.8487,-9.8489,0,-9.7945,-9.7921,-9.8,-9.7994,-9.7995,-9.8053,-9.8047,-9.8089,-9.8074,-9.813,-9.8141,-9.8116,-9.8157,-9.8128,-9.817,-9.8153,-9.8247,-9.8225,-9.8244,-9.8238,-9.8312,-9.8305,-9.8556,-9.8587,-9.8353,-9.8355,-9.8357,0,-9.7762,-9.7834,-9.7793,-9.784,-9.7918,-9.7878,-9.7956,-9.795,-9.7956,-9.7999,-9.7945,-9.7987,-9.7943,-9.798,-9.7956,-9.8027,-9.8035,-9.8026,-9.8019,-9.8031,-9.8032,-9.8042,-9.8031,-9.8,-9.7999,-9.7998,-9.7997,0,-9.7586,-9.7648,-9.7724,-9.7734,-9.7735,-9.7771,-9.7773,-9.7778,-9.7799,-9.7822,-9.7835,-9.7865,-9.7881,-9.7904,-9.7872,-9.7818,-9.7959,-9.7877,-9.795,-9.7951,-9.7982,-9.798,-9.821,-9.7995,-9.7995,-9.7994,-9.7994,0,-9.7433,-9.7459,-9.7573,-9.7571,-9.7589,-9.7639,-9.7665,-9.7701,-9.771,-9.7698,-9.7715,-9.7675,-9.7735,-9.7656,-9.7738,-9.7676,-9.7695,-9.7692,-9.7696,-9.7699,-9.7612,-9.7745,-9.7968,-9.799,-9.7703,-9.7701,-9.7699,0,-9.7239,-9.7347,-9.7313,-9.7422,-9.7467,-9.7403,-9.7457,-9.7467,-9.7455,-9.7491,-9.7477,-9.7518,-9.7453,-9.7462,-9.7507,-9.7494,-9.7574,-9.7482,-9.7533,-9.7535,-9.7533,-9.7737,-9.7778,-9.7923,-9.7667,-9.767,-9.7673,0,-9.7085,-9.7085,-9.7107,-9.7116,-9.7123,-9.716,-9.7223,-9.7255,-9.7281,-9.7297,-9.7348,-9.7405,-9.7358,-9.7373,-9.7343,-9.7391,-9.7518,-9.7334,-9.7333,-9.7368,-9.7649,-9.7687,-9.7711,-9.7487,-9.7491,-9.7494,-9.7648,0,-9.6859,-9.691,-9.6968,-9.6991,-9.7015,-9.7081,-9.705,-9.708,-9.7048,-9.7034,-9.7108,-9.7107,-9.7138,-9.7158,-9.7128,-9.7247,-9.7222,-9.7171,-9.7092,-9.7227,-9.7276,-9.7297,-9.702,-9.7018,-9.7016,-9.7014,0,0,-9.6679,-9.6751,-9.6711,-9.677,-9.6788,-9.6719,-9.6793,-9.6802,-9.6822,-9.6836,-9.6792,-9.6872,-9.6873,-9.6966,-9.7005,-9.7018,-9.7036,-9.699,-9.7163,-9.718,-9.7195,-9.7249,-9.7271,-9.701,-9.7009,-9.7008,-9.7008,0,-9.659,-9.6594,-9.6668,-9.6676,-9.6686,-9.6667,-9.6685,-9.6683,-9.6677,-9.6749,-9.669,-9.673,-9.6796,-9.6804,-9.6817,-9.6979,-9.6931,-9.6991,-9.7088,-9.7143,-9.7162,-9.7179,-9.7236,-9.7258,-9.7003,-9.7003,-9.7003,0,-9.6432,-9.6431,-9.6463,-9.6502,-9.6507,-9.6556,-9.6465,-9.652,-9.6555,-9.6475,-9.6548,-9.6543,-9.6551,-9.6643,-9.6683,-9.6644,-9.6838,-9.6771,-9.6783,-9.6786,-9.6837,-9.6861,-9.6882,-9.6605,-9.6604,-9.6603,0,0,-9.636,-9.6406,-9.6392,-9.648,-9.6488,-9.646,-9.6483,-9.6453,-9.6463,-9.6467,-9.646,-9.6471,-9.6508,-9.6533,-9.6566,-9.6672,-9.667,-9.6723,-9.6742,-9.6757,-9.6769,-9.6824,-9.6848,-9.6598,-9.6598,-9.6598,0,0,-9.6324,-9.6312,-9.6278,-9.6376,-9.6389,-9.6379,-9.6434,-9.6392,-9.6419,-9.6408,-9.636,-9.636,-9.6445,-9.6443,-9.6383,-9.6537,-9.6459,-9.6473,-9.6536,-9.6559,-9.6577,-9.6576,-9.6289,0,0,0,0,0,-9.6217,-9.6313,-9.6283,-9.6295,-9.6342,-9.6396,-9.6402,-9.6365,-9.6311,-9.6355,-9.6342,-9.629,-9.6401,-9.6347,-9.6359,-9.6425,-9.6537,-9.6548,-9.6558,-9.6664,-9.6689,-9.6709,0,0,0,0,0,0,-9.6221,-9.6236,-9.628,-9.6276,-9.6286,-9.6393,-9.6293,-9.6285,-9.6305,-9.6294,-9.6294,-9.629,-9.6258,-9.6338,-9.635,-9.6413,-9.6285,-9.6541,-9.655,-9.6559,-9.6672,-9.6693,-9.671,0,0,0,0,0,-9.6224,-9.6236,-9.6321,-9.6274,-9.6283,-9.6257,-9.6289,-9.6282,-9.6296,-9.6276,-9.627,-9.6267,-9.6261,-9.6268,-9.6345,-9.6409,-9.6277,-9.6282,-9.6547,-9.6554,-9.6561,-9.6682,0,0,0,0,0,0,-9.6227,-9.6229,-9.6322,-9.6323,-9.6235,-9.6251,-9.6252,-9.6279,-9.6276,-9.6271,-9.6246,-9.6237,-9.6265,-9.6269,-9.6275,-9.641,-9.6271,-9.6275,-9.6278,-9.6553,-9.6558,-9.6563,0,0,0,0,0,0,-9.6223,-9.6231,-9.6323,-9.6275,-9.6271,-9.6245,-9.6246,-9.6305,-9.6277,-9.6246,-9.6238,-9.6242,-9.6256,-9.6271,-9.6274,-9.6369,-9.6266,-9.627,-9.6273,-9.6275,-9.6557,-9.6562,0,0,0,0,0,0,-9.6226,-9.6233,-9.6275,-9.6271,-9.6267,-9.6278,-9.6296,-9.6346,-9.6237,-9.6247,-9.6226,-9.6221,-9.6259,-9.6262,-9.6275,-9.6368,-9.6369,-9.6266,-9.6269,-9.6271,-9.6272,0,0,0,0,0,0,0,-9.6228,-9.619,-9.6315,-9.6268,-9.6264,-9.6335,-9.6335,-9.6336,-9.6236,-9.6232,-9.6228,-9.6223,-9.6242,-9.6246,-9.6251,-9.6367,0,0,-9.6265,-9.6267,0,0,0,0,0,0,0,0,-9.6186,-9.6189,-9.6315,-9.6315,-9.6315,-9.6335,-9.6335,-9.6336,-9.6235,-9.6232,-9.6228,-9.6225,-9.6243,-9.6247,-9.625,0,0,0,0,0,0,0,0,0,0,0,0,0,0,0,-9.6315,-9.6315,0,-9.6335,-9.6335,-9.6335,-9.6235,-9.6232,-9.6229,-9.6226,-9.6244,-9.6247,-9.625,0,0,0,0,0,0,0,0,0,0,0,0,0,0,0,0,0,0,0,0,0,0,0,0,0,0,0,0,0,0,0,0,0,0,0,0,0,0,0,0,0,0,0,0,0,0,0,0,0,0,0,0,0,0,0,0,0,0,0,0,0,0,0,0,0,0,0,0,0]}]]]